Change the Weather History Date:

Saturday, November 17, 2012

  Actual Average (KBFM) Record (KBFM)
Temperature  
Mean Temperature 55 °F -  
Max Temperature 68 °F 67 °F 81 °F (2013)
Min Temperature 42 °F 48 °F 35 °F (1997)
Degree Days  
Heating Degree Days 10    
Growing Degree Days 5 (Base 50)    
Moisture  
Dew Point 42 °F    
Average Humidity 71    
Maximum Humidity 100    
Minimum Humidity 32    
Precipitation  
Precipitation 0.00 in - - ()
Sea Level Pressure  
Sea Level Pressure 30.29 in    
Wind  
Wind Speed 5 mph (NNE)    
Max Wind Speed 13 mph    
Max Gust Speed 18 mph    
Visibility 10 miles    
Events      
Averages and records for this station are not official NWS values.
T = Trace of Precipitation, MM = Missing Value Source: NWS Daily Summary

Daily Weather History Graph

Daily Weather History Graph

Search for Another Location

Airport or City:

Trip Planner

Search our weather history database for the weather conditions in past years. The results will help you decide how hot, cold, wet, or windy it might be!

Date:

Astronomy

Nov. 17, 2012 Rise Set
Actual Time 6:19 AM CST 4:53 PM CST
Civil Twilight 5:53 AM CST 5:18 PM CST
Nautical Twilight 5:24 AM CST 5:48 PM CST
Astronomical Twilight 4:56 AM CST 6:16 PM CST
Moon 10:03 AM CST (11/17) 9:01 PM CST (11/17)
Length of Visible Light 11h 25m
Length of Day
10h 33m
Waxing Crescent, 20% of the Moon is Illuminated
Nov 17
Waxing Crescent
Nov 20
First Quarter
Nov 28
Full
Dec 6
Last Quarter
Dec 13
New

Hourly Weather History & Observations

Time (CST) Temp. Windchill Dew Point Humidity Pressure Visibility Wind Dir Wind Speed Gust Speed Precip Events Conditions
12:15 AM 42.8 °F - 42.8 °F 100% 30.27 in 10.0 mi Calm Calm - N/A   Clear
12:35 AM 44.6 °F - 42.8 °F 93% 30.27 in 10.0 mi Calm Calm - N/A   Clear
12:55 AM 44.6 °F 43.1 °F 44.6 °F 100% 30.27 in 10.0 mi NNE 3.5 mph - N/A   Clear
1:15 AM 42.8 °F - 42.8 °F 100% 30.27 in 1.5 mi Calm Calm - N/A   Scattered Clouds
1:35 AM 44.6 °F 42.2 °F 44.6 °F 100% 30.27 in 10.0 mi NNE 4.6 mph - N/A   Clear
1:55 AM 44.6 °F 42.2 °F 44.6 °F 100% 30.27 in 7.0 mi NNE 4.6 mph - N/A   Clear
2:15 AM 44.6 °F 42.2 °F 44.6 °F 100% 30.27 in 10.0 mi NNE 4.6 mph - N/A   Clear
2:35 AM 44.6 °F 41.4 °F 44.6 °F 100% 30.27 in 10.0 mi NNE 5.8 mph - N/A   Clear
2:55 AM 44.6 °F 43.1 °F 44.6 °F 100% 30.28 in 10.0 mi NNE 3.5 mph - N/A   Clear
3:15 AM 44.6 °F 41.4 °F 42.8 °F 93% 30.28 in 10.0 mi NNE 5.8 mph - N/A   Clear
3:35 AM 44.6 °F 43.1 °F 42.8 °F 93% 30.28 in 10.0 mi NNE 3.5 mph - N/A   Clear
3:55 AM 44.6 °F 43.1 °F 42.8 °F 93% 30.28 in 10.0 mi NNE 3.5 mph - N/A   Clear
4:15 AM 44.6 °F 43.1 °F 42.8 °F 93% 30.28 in 10.0 mi NNE 3.5 mph - N/A   Clear
4:35 AM 42.8 °F - 42.8 °F 100% 30.28 in 10.0 mi Calm Calm - N/A   Clear
4:55 AM 44.6 °F 41.4 °F 42.8 °F 93% 30.29 in 10.0 mi NNE 5.8 mph - N/A   Clear
5:15 AM 42.8 °F 40.1 °F 42.8 °F 100% 30.29 in 10.0 mi NNE 4.6 mph - N/A   Clear
5:35 AM 42.8 °F 40.1 °F 42.8 °F 100% 30.30 in 10.0 mi NNE 4.6 mph - N/A   Clear
5:55 AM 42.8 °F 40.1 °F 42.8 °F 100% 30.30 in 10.0 mi NNE 4.6 mph - N/A   Clear
6:15 AM 42.8 °F 40.1 °F 42.8 °F 100% 30.31 in 10.0 mi NNE 4.6 mph - N/A   Clear
6:35 AM 42.8 °F 41.1 °F 42.8 °F 100% 30.31 in 10.0 mi NNE 3.5 mph - N/A   Clear
6:55 AM 44.6 °F 42.2 °F 42.8 °F 93% 30.32 in 10.0 mi NNE 4.6 mph - N/A   Clear
7:15 AM 46.4 °F - 44.6 °F 93% 30.32 in 10.0 mi Calm Calm - N/A   Clear
7:35 AM 48.2 °F - 44.6 °F 87% 30.33 in 10.0 mi NE 4.6 mph - N/A   Clear
7:55 AM 50.0 °F - 44.6 °F 82% 30.34 in 10.0 mi NE 5.8 mph - N/A   Clear
8:15 AM 51.8 °F - 44.6 °F 76% 30.34 in 10.0 mi NE 9.2 mph - N/A   Clear
8:35 AM 53.6 °F - 46.4 °F 77% 30.34 in 10.0 mi NNE 8.1 mph - N/A   Clear
8:55 AM 55.4 °F - 46.4 °F 72% 30.34 in 10.0 mi NNE 8.1 mph - N/A   Clear
9:15 AM 57.2 °F - 46.4 °F 67% 30.35 in 10.0 mi NNE 12.7 mph - N/A   Clear
9:35 AM 59.0 °F - 44.6 °F 59% 30.35 in 10.0 mi NE 9.2 mph 17.3 mph N/A   Clear
9:55 AM 60.8 °F - 44.6 °F 55% 30.35 in 10.0 mi ENE 10.4 mph 16.1 mph N/A   Clear
10:15 AM 60.8 °F - 44.6 °F 55% 30.35 in 10.0 mi NE 12.7 mph 16.1 mph N/A   Clear
10:35 AM 60.8 °F - 44.6 °F 55% 30.34 in 10.0 mi ENE 12.7 mph 18.4 mph N/A   Clear
11:55 AM 64.4 °F - 42.8 °F 45% 30.30 in 10.0 mi NNE 5.8 mph - N/A   Clear
12:15 PM 64.4 °F - 41.0 °F 42% 30.29 in 10.0 mi NE 9.2 mph - N/A   Clear
12:35 PM 64.4 °F - 41.0 °F 42% 30.28 in 10.0 mi NNE 11.5 mph 17.3 mph N/A   Clear
12:55 PM 66.2 °F - 41.0 °F 40% 30.28 in 10.0 mi North 10.4 mph 17.3 mph N/A   Clear
1:15 PM 66.2 °F - 41.0 °F 40% 30.27 in 10.0 mi North 8.1 mph - N/A   Clear
1:35 PM 66.2 °F - 41.0 °F 40% 30.26 in 10.0 mi North 8.1 mph - N/A   Clear
1:55 PM 68.0 °F - 39.2 °F 35% 30.26 in 10.0 mi North 10.4 mph - N/A   Clear
2:15 PM 66.2 °F - 41.0 °F 40% 30.25 in 10.0 mi NNW 8.1 mph 17.3 mph N/A   Clear
2:35 PM 68.0 °F - 37.4 °F 33% 30.25 in 10.0 mi NNE 10.4 mph - N/A   Clear
2:55 PM 66.2 °F - 37.4 °F 35% 30.25 in 10.0 mi North 8.1 mph - N/A   Clear
3:15 PM 66.2 °F - 35.6 °F 32% 30.25 in 10.0 mi NNE 12.7 mph - N/A   Clear
3:35 PM 66.2 °F - 37.4 °F 35% 30.25 in 10.0 mi North 10.4 mph - N/A   Clear
3:55 PM 64.4 °F - 37.4 °F 37% 30.25 in 10.0 mi NNE 11.5 mph - N/A   Clear
4:15 PM 64.4 °F - 37.4 °F 37% 30.26 in 10.0 mi NNE 12.7 mph - N/A   Clear
4:35 PM 62.6 °F - 39.2 °F 42% 30.26 in 10.0 mi NNE 6.9 mph - N/A   Clear
4:55 PM 59.0 °F - 39.2 °F 48% 30.27 in 10.0 mi North 5.8 mph - N/A   Clear
5:15 PM 59.0 °F - 41.0 °F 51% 30.27 in 10.0 mi Calm Calm - N/A   Clear
5:35 PM 51.8 °F - 41.0 °F 67% 30.27 in 10.0 mi Calm Calm - N/A   Clear
5:55 PM 50.0 °F - 41.0 °F 71% 30.28 in 10.0 mi NNE 3.5 mph - N/A   Clear
6:15 PM 46.4 °F - 41.0 °F 81% 30.29 in 10.0 mi Calm Calm - N/A   Clear
6:35 PM 44.6 °F 43.1 °F 41.0 °F 87% 30.29 in 10.0 mi North 3.5 mph - N/A   Clear
6:55 PM 50.0 °F - 41.0 °F 71% 30.29 in 10.0 mi NNE 5.8 mph - N/A   Clear
7:15 PM 51.8 °F - 41.0 °F 67% 30.29 in 10.0 mi NNE 6.9 mph - N/A   Clear
7:35 PM 51.8 °F - 41.0 °F 67% 30.30 in 10.0 mi NNE 4.6 mph - N/A   Clear
7:55 PM 51.8 °F - 41.0 °F 67% 30.30 in 10.0 mi NNE 6.9 mph - N/A   Clear
8:15 PM 51.8 °F - 41.0 °F 67% 30.30 in 10.0 mi NNE 6.9 mph - N/A   Clear
8:35 PM 51.8 °F - 41.0 °F 67% 30.30 in 10.0 mi NE 5.8 mph - N/A   Clear
8:55 PM 51.8 °F - 41.0 °F 67% 30.30 in 10.0 mi NE 5.8 mph - N/A   Clear
9:15 PM 51.8 °F - 39.2 °F 62% 30.30 in 10.0 mi NE 4.6 mph - N/A   Clear
9:35 PM 50.0 °F - 39.2 °F 66% 30.31 in 10.0 mi Calm Calm - N/A   Clear
9:55 PM 48.2 °F - 39.2 °F 71% 30.31 in 10.0 mi NNE 3.5 mph - N/A   Clear
10:15 PM 48.2 °F - 39.2 °F 71% 30.31 in 10.0 mi NNE 3.5 mph - N/A   Clear
10:35 PM 46.4 °F 45.2 °F 37.4 °F 71% 30.30 in 10.0 mi North 3.5 mph - N/A   Clear
10:55 PM 46.4 °F 45.2 °F 39.2 °F 76% 30.30 in 10.0 mi NNE 3.5 mph - N/A   Clear
11:15 PM 48.2 °F - 37.4 °F 66% 30.30 in 10.0 mi Calm Calm - N/A   Clear
11:35 PM 46.4 °F 44.3 °F 37.4 °F 71% 30.30 in 10.0 mi North 4.6 mph - N/A   Clear
11:55 PM 46.4 °F 45.2 °F 37.4 °F 71% 30.30 in 10.0 mi NNE 3.5 mph - N/A   Clear